User: anonymous   Login
Location: Mentone
(34.5413°N, 85.5351°W)
Time: 01:42:23
(UTC-05:00)
Language:

Okean O Rocket - Orbit

View from above orbital plane
View from above orbital plane
View from above satellite
View from above satellite

Ground track
Ground track

The orbit data is extracted from the following two-line orbital elements,

1 25861U 99039B   16238.12751574  .00000057  00000-0  15142-4 0  9993
2 25861  98.0607 202.2300 0014778 319.4014  99.7232 14.78340868922039
Epoch (UTC): 25 August 2016 03:03:37
Eccentricity: 0.0014778
inclination: 98.0607°
perigee height: 624 km
apogee height: 645 km
right ascension of ascending node: 202.2300°
argument of perigee: 319.4014°
revolutions per day: 14.78340868
mean anomaly at epoch: 99.7232°
orbit number at epoch: 92203

The dashed part of the orbit path shows where the satellite is in the earth's shadow,  

DLR